Location: Peterborough
(44.3091°N, 78.3197°W)
Time: 03:41:29
(UTC-04:00)

Tiros 1 - Pass Details

Date: 05 April 2023
Orbit: 627 x 661 km, 48.4° (Epoch: 09 June)

Event Time Altitude Azimuth Distance (km) Brightness Sun altitude
Rises 05:36:42 0° 283° (WNW) 2,982 - -13.0°
Reaches altitude 10° 05:39:06 10° 288° (WNW) 2,073 - -12.6°
Exits shadow 05:39:16 11° 288° (WNW) 2,012 9.2 -12.6°
Maximum altitude 05:43:47 53° 5° (N) 814 7.8 -11.8°
Drops below altitude 10° 05:48:30 10° 83° (E) 2,076 11.2 -11.1°
Sets 05:50:54 0° 88° (E) 2,987 12.2 -10.7°
